{"data":{"norad_id":63582,"epoch":"2026-09-20T09:53:24.509472Z","epoch_age_seconds":160107,"freshness":"FRESH","line1":"1 63582U 25076P   26263.41208923  .00008756  00000+0  32730-3 0  9995","line2":"2 63582  42.9975 301.7437 0001361 281.7462  78.3236 15.27582066 81615","mean_motion":15.27582066,"eccentricity":0.0001361,"inclination_deg":42.9975,"raan_deg":301.7437,"arg_perigee_deg":281.7462,"mean_anomaly_deg":78.3236,"bstar":0.0003273,"rev_number":8161,"period_min":94.266621221252,"perigee_km":482.10910311368,"apogee_km":483.9767162851,"semimajor_km":6861.1799096994,"source":"CELESTRAK","updated_at":"2026-09-21T09:00:35.047366Z"}}